Location: Chevoux
(46.3801°N, 4.9476°E)
Time: 01:39:19
(UTC+00:00)

N. Korean satellite - Visible Passes

Search period start: 08 December 2021 00:00
Search period end: 18 December 2021 00:00
Orbit: 446 x 495 km, 97.3° (Epoch: 07 December)

Date Brightness Start Highest point End Pass type
(mag) Time Alt. Az. Time Alt. Az. Time Alt. Az.
08 Dec 8.2 04:30:25 10° NNE 04:33:30 32° E 04:36:34 10° SSE visible
08 Dec 7.9 06:04:14 10° NNW 06:06:28 17° WNW 06:08:40 10° WSW visible
08 Dec 8.8 16:40:01 10° SSW 16:43:06 29° W 16:46:11 10° NW visible
09 Dec 9.5 04:02:44 10° NE 04:04:46 15° E 04:06:48 10° SE visible
09 Dec 7.0 05:35:01 10° N 05:38:06 34° WNW 05:41:12 10° SW visible
10 Dec 6.2 05:06:14 10° N 05:09:42 81° WSW 05:13:00 10° SSW visible
10 Dec 10.0 17:18:18 10° WSW 17:19:26 11° W 17:20:33 10° WNW visible
11 Dec 7.8 04:41:39 36° SE 04:41:39 36° SE 04:44:15 10° S visible
11 Dec 8.7 06:15:45 10° W 06:15:45 10° W 06:11:44 - NNW visible
11 Dec 9.2 16:47:48 10° SSW 16:50:39 24° W 16:53:30 10° NW visible
12 Dec 9.3 04:13:19 16° ESE 04:13:19 16° ESE 04:14:46 10° SE visible
12 Dec 8.2 05:47:25 17° WSW 05:47:25 17° WSW 05:48:29 10° SW visible
13 Dec 7.9 05:18:58 24° SSW 05:18:58 24° SSW 05:20:27 10° SSW visible
14 Dec 8.4 04:50:27 22° SSE 04:50:27 22° SSE 04:51:50 10° S visible
14 Dec9.406:24:33WSW06:24:33WSW06:18:01NNWvisible
14 Dec 9.5 16:55:35 10° SW 16:58:09 19° W 17:00:42 10° NW visible
15 Dec 9.3 04:21:52 14° SE 04:21:52 14° SE 04:22:33 10° SSE visible
15 Dec9.005:55:58SW05:55:58SW05:48:53Nvisible
15 Dec 7.9 16:26:08 10° S 16:29:25 42° W 16:32:42 10° NNW visible
16 Dec 8.7 05:27:21 13° SSW 05:27:21 13° SSW 05:27:48 10° SSW visible
17 Dec 8.9 04:58:42 14° S 04:58:42 14° S 04:59:18 10° S visible
17 Dec 9.6 17:03:25 10° SW 17:05:35 16° W 17:07:44 10° NW visible
